This demonstration page uses our WeatherBlox Daily Observations layout. Learn more.

Left ArrowRight Arrow

41.55636, -103.73856

Hourly Observations for May 21, 2020

Temp ( °F °C ) Dew Point ( °F °C ) Humidity (%) Winds ( mph kmh ) Pressure ( in mb ) Visibility ( mi km ) Precip ( " mm )
12:58 am 00:58 Clear 74 23.4 54 12.4 50 50 SSE 35 56 29.54 1000 10 16 N/A
1:58 am 01:58 Mostly Cloudy 63 17.2 32 undefined 31 31 N 20 31 29.73 1007 10 16 N/A
2:58 am 02:58 Mostly Cloudy with Heavy Showers 52 11 45 7 77 77 W 8 13 29.88 1012 10 16 0.09 2.29
3:58 am 03:58 Cloudy with Showers 49 9.2 46 7.6 90 90 E 7 11 29.87 1012 10 16 0.26 6.60
4:58 am 04:58 Mostly Cloudy with Showers 49 9.3 46 7.9 91 91 E 13 20 29.83 1010 10 16 0.12 3.05
5:58 am 05:58 Mostly Cloudy 49 9.4 46 7.9 90 90 E 12 19 29.85 1011 10 16 0.02 0.51
6:58 am 06:58 Mostly Cloudy 48 9.1 46 7.8 92 92 SE 7 11 29.84 1011 10 16 N/A
7:58 am 07:58 Mostly Cloudy 47 8.6 45 7.3 92 92 SSE 5 7 29.83 1010 10 16 N/A
8:58 am 08:58 Mostly Cloudy 47 8.1 45 7.3 95 95 WSW 3 6 29.85 1011 10 16 N/A
9:58 am 09:58 Mostly Clear 46 7.6 44 6.4 92 92 SW 5 7 29.83 1010 10 16 N/A
10:58 am 10:58 Clear 43 6.1 42 5.3 95 95 SW 6 9 29.87 1012 10 16 N/A
11:58 am 11:58 Sunny 45 7.1 41 5.2 88 88 SSW 3 6 29.87 1012 10 16 N/A
12:58 pm 12:58 Sunny 48 9.1 42 5.7 79 79 WSW 6 9 29.87 1012 10 16 N/A
1:58 pm 13:58 Sunny 53 11.5 40 4.4 62 62 N N/A 29.88 1012 10 16 N/A
2:58 pm 14:58 Sunny 56 13.4 37 2.9 49 49 N N/A 29.91 1013 10 16 N/A
3:58 pm 15:58 Sunny 59 15.1 39 3.7 47 47 N N/A 29.90 1013 10 16 N/A
4:58 pm 16:58 Sunny 63 17 39 3.7 41 41 N N/A 29.88 1012 10 16 0.01 0.25
5:58 pm 17:58 Sunny 66 19 33 0.7 29 29 SSW 5 7 29.85 1011 10 16 N/A
6:58 pm 18:58 Sunny 68 20 37 2.6 32 32 SSW 9 15 29.82 1010 10 16 N/A
7:58 pm 19:58 Sunny 71 21.5 30 -1.1 22 22 SSW 12 19 29.81 1010 10 16 N/A
8:58 pm 20:58 Sunny 71 21.6 28 -2.3 20 20 N N/A 29.80 1009 10 16 N/A
9:58 pm 21:58 Mostly Sunny 73 22.8 32 -0.1 22 22 S 10 17 29.79 1009 10 16 N/A
10:58 pm 22:58 Mostly Sunny 73 22.9 31 -0.4 21 21 SSW 13 20 29.78 1008 10 16 N/A
11:58 pm 23:58 Partly Cloudy 72 22.3 32 0.2 23 23 SW 10 17 29.79 1009 10 16 N/A

Powered by AerisWeather